Home   Weather   Cedar Rapids   Past weeks

Flag for USA Past Weather in Cedar Rapids, Iowa, USA — Yesterday and Last 2 Weeks

Now
34 °F

Fog.


Feels Like: 28 °F
Forecast: 33 / 40 °F
Wind: 7 mph from Northwest

Location: Cedar Rapids Municipal Airport

Current Time: Jan 23, 2017 at 12:35:38 am

Latest Report: Jan 22, 2017 at 11:52 pm


Visibility: 5 mi

Pressure: 29.82 "Hg

Humidity: 97%

Dew Point: 33 °F

Location of Cedar RapidsLocation

Past Weather in Cedar Rapids — Graph

°F

Cedar Rapids Temperature Yesterday

Maximum temperature yesterday: 37 °F (at 3:52 pm)
Minimum temperature yesterday: 29 °F (at 3:00 am)
Average temperature yesterday: 34 °F

High & Low Weather Summary for the Past Weeks

 TemperatureHumidityPressure
High44 °F (Jan 10, 10:41 am)100% (Jan 10, 7:52 am)30.82 "Hg (Jan 10, 7:52 am)
Low-4 °F (Jan 8, 6:52 am)43% (Jan 13, 1:52 pm)29.24 "Hg (Jan 10, 10:34 am)
Average29 °F87%29.99 "Hg
* Reported Jan 7 11:52 pm — Jan 22 11:06 pm, Cedar Rapids, Weather by CustomWeather, © 2017

Note: Actual official high and low records may vary slightly from our data, if they occured in-between our weather recording intervals... More about our weather records

Advertising

Cedar Rapids Weather History for the Previous 24 Hours

Scroll right to see more
 ConditionsComfort  
Time TempWeatherWind HumidityBarometerVisibility
11:06 pm
Sun, Jan 22
34 °FFog.6 mph97%29.79 "Hg4 mi
10:52 pm34 °FFog.5 mph100%29.82 "Hg5 mi
9:52 pm34 °FLow clouds.10 mph97%29.80 "Hg7 mi
8:52 pm34 °FFog.14 mph97%29.75 "Hg5 mi
8:18 pm35 °FFog.18 mph92%29.73 "Hg5 mi
7:52 pm35 °FFog.15 mph96%29.76 "Hg6 mi
6:52 pm36 °FFog.13 mph92%29.75 "Hg6 mi
5:52 pm37 °FFog.12 mph93%29.74 "Hg6 mi
5:39 pm37 °FMostly cloudy.12 mph93%29.71 "Hg7 mi
5:03 pm37 °FFog.9 mph93%29.70 "Hg5 mi
4:52 pm37 °FFog.9 mph93%29.73 "Hg5 mi
4:17 pm37 °FFog.7 mph93%29.69 "Hg6 mi
3:52 pm37 °FFog.8 mph93%29.71 "Hg6 mi
3:14 pm36 °FOvercast.6 mph89%29.68 "Hg8 mi
2:52 pm36 °FOvercast.6 mph85%29.70 "Hg8 mi
1:52 pm35 °FOvercast.8 mph88%29.68 "Hg10 mi
12:52 pm35 °FOvercast.10 mph88%29.68 "Hg8 mi
11:52 am34 °FFog.8 mph97%29.70 "Hg3 mi
11:34 am33 °FFog.7 mph100%29.68 "Hg2 mi
10:52 am33 °FFog.8 mph96%29.71 "Hg3 mi
9:52 am32 °FIce fog.10 mph100%29.71 "Hg2 mi
9:07 am32 °FIce fog.10 mph100%29.66 "Hg2 mi
8:52 am32 °FIce fog.9 mph100%29.67 "Hg1 mi
7:52 am33 °FFog.9 mph100%29.64 "Hg1 mi
6:52 am32 °FFog.8 mph100%29.63 "Hg1 mi
6:35 am32 °FIce fog.9 mph100%29.61 "Hg1 mi
6:18 am32 °FFog.6 mph100%29.60 "Hg0 mi
5:52 am32 °FFog.6 mph100%29.62 "Hg0 mi
4:52 am31 °FIce fog.No wind100%29.59 "Hg1 mi
4:24 am31 °FIce fog.5 mph100%29.58 "Hg2 mi
4:01 am31 °FIce fog.No wind100%29.58 "Hg1 mi
3:19 am29 °FIce fog.3 mph100%29.57 "Hg0 mi
3:00 am29 °FIce fog.5 mph96%29.58 "Hg0 mi
2:28 am30 °FIce fog.No wind100%29.57 "Hg1 mi
1:52 am32 °FFog.No wind96%29.58 "Hg0 mi
1:04 am32 °FFog.No wind100%29.56 "Hg0 mi
12:52 am34 °FFog.No wind100%29.57 "Hg1 mi
12:35 am34 °FFog.No wind97%29.56 "Hg1 mi
Weather by CustomWeather, © 2017

See weather overviewHow to use our weather pages